Hourly Data Report for September 03, 2017

All times are specified in Local Standard Time (LST). Add 1 hour to adjust for Daylight Saving Time where and when it is observed.

ARVIAT A
NUNAVUT

61°05'38.000" N
94°04'18.000" W
10.40 m
2300427
71174
YEK

Related Data

No related data is available for this station

Download Data

Hourly Data (September 2017)
Hourly Data Report for September 3, 2017
Temp Definition
°C
Dew Point Temp Definition
°C
Rel Hum Definition
%
Wind Dir Definition
10's deg

Wind Spd Definition
km/h
Visibility Definition
km
Stn Press Definition
kPa
Hmdx Definition


Wind Chill Definition


Weather Definition


TIME
00:00 Legend Double Dagger 6.9 4.0 82 34 39 16.1 99.59     LegendNANA
01:00 Legend Double Dagger 7.0 3.8 80 34 39 16.1 99.54     LegendNANA
02:00 Legend Double Dagger 7.0 3.9 81 34 46 16.1 99.51     LegendNANA
03:00 Legend Double Dagger 6.8 3.8 81 34 39 16.1 99.50     LegendNANA
04:00 Legend Double Dagger 6.7 3.6 81 34 46 16.1 99.51     LegendNANA
05:00 Legend Double Dagger 6.5 3.7 82 34 43 16.1 99.50     LegendNANA
06:00 Legend Double Dagger 6.2 3.9 85 34 35 16.1 99.49     LegendNANA
07:00 Legend Double Dagger 6.0 4.2 88 34 48 16.1 99.49     LegendNANA
08:00 Legend Double Dagger 5.4 4.5 94 34 43 16.1 99.49     Rain
09:00 Legend Double Dagger 5.6 4.6 93 34 43 14.5 99.46     LegendNANA
10:00 Legend Double Dagger 6.2 4.5 89 35 52 16.1 99.43     LegendNANA
11:00 Legend Double Dagger 6.0 4.8 92 35 45 8.1 99.45     Rain,Fog
12:00 Legend Double Dagger 6.2 5.2 93 34 46 16.1 99.48     LegendNANA
13:00 Legend Double Dagger 6.2 5.6 96 34 50 8.1 99.48     Rain,Fog
14:00 Legend Double Dagger 6.7 6.0 95 34 52 6.4 99.50     Rain,Fog
15:00 Legend Double Dagger 7.1 6.2 94 35 48 16.1 99.54     LegendNANA
16:00 Legend Double Dagger 7.2 6.3 94 35 46 16.1 99.60     LegendNANA
17:00 Legend Double Dagger 7.3 6.7 96 36 48 12.9 99.65     Rain
18:00 Legend Double Dagger 7.6 7.0 96 35 45 8.1 99.71     Rain,Fog
19:00 Legend Double Dagger 7.9 7.3 96 36 43 12.9 99.77     Rain
20:00 Legend Double Dagger 8.2 7.0 92 36 46 16.1 99.83     LegendNANA
21:00 Legend Double Dagger 8.0 7.1 94 1 48 11.3 99.90     Rain
22:00 Legend Double Dagger 7.8 7.1 95 1 41 9.7 99.95     Rain,Fog
23:00 Legend Double Dagger 7.8 6.9 94 1 41 16.1 100.01     LegendNANA

Notes on Data Quality.

Legend

  • E = Estimated
  • M = Missing
  • NA = Not Available
  • ‡ = Partner data that is not subject to review by the National Climate Archives
Date modified: